国际通讯卫星 22 星 (INTELSAT 22 (IS-22))

导读

INTELSAT 22又名国际通讯卫星22星,由国际通信卫星组织(ITSO)拥有,于2012年3月25日通过质子M/Briz M火箭在拜科努尔航天中心发射升空,是一颗地球静止轨道通信卫星,采用BSS-702MP平台、三轴稳定设计。本次发射是质子火箭首次执行超同步转移轨道发射任务,目前该卫星仍在轨运行,为全球提供通信服务。

基本信息
目录编号:
38098
目录名称:
INTELSAT 22
国际标识:
2012-011A
轨道中心:
EARTH
卫星名称:
国际通讯卫星 22 星
卫星全名:
国际通讯卫星 22 星 (INTELSAT 22 (IS-22))
卫星状态:
在轨 (已飞行5283 天)
发射日期:
2012-03-25 UTC
国别 :
(ITSO)
星等 :
--
该卫星已列入 空间交会检测服务 Space Conjunction Data Service (SCDS) ,当前飞行风险评估等级: 无高风险
轨道信息
数据来源 国际轨道数据 AOE轨道数据
星历时间 2026-09-11T09:32:22+0800
13小时前
查看轨道信息
2026-09-10T06:00:00+0800
1天前
查看轨道信息
半长轴 42164.756km 42164.896km
偏心率 0.0001744 0.000184
轨道倾角 0.021° 0.012°
近地点辐角 48.150° 31.957°
升交点赤经 119.888° 128.042°
平近点角 277.240° 231.053°
近地点 35779.265km 35779km
远地点 35793.973km 35794.518km
周期 1436.098分钟 1436.105分钟
每日圈数 1.002717 1.002712
详细信息
卫星平台:
BSS-702MP
平衡模式:
三轴稳定
覆盖范围:
全球
运营商:
国际卫星通信公司
运营商所在国:
美国
制造商(研发单位):
波音公司
制造商所在国:
美国
使用方式:
暂无
卫星简介
从1965年4月至1984年3月,国际通信卫星组织发射了5代、6种不同性能的卫星共计35颗,除6颗卫星因运载火箭和远地点发动机故障而发射失败外,其余29颗卫星均被送到了预定的静止轨道位置。1984年8月前后,国际通信卫星组织利用部署在大西洋、太平洋、印度洋上空的15颗国际通信卫星,为遍布世界各地170多个国家或地区提供电话、电传、电报、电视和数据传输等电信业务;该卫星仍在工作。
2D轨道图
3D轨道图
轨道高度分析图
轨道倾角分析图
轨道综合分析图
查看轨道综合分析图
与全量物体交会距离演化趋势
与全量物体交会风险概率演化趋势